Flagstaff, AZ

9:35 PM MST on August 21, 2017 (GMT -0700)
Flagstaff Pulliam

Weather History for KFLG - April, 2012

Change the Weather History Date:

Sunday, April 15, 2012

  Actual Average Record
Temperature  
Mean Temperature 38 °F 43 °F  
Max Temperature 48 °F 58 °F 76 °F (1948)
Min Temperature 27 °F 28 °F 11 °F (1965)
Degree Days  
Heating Degree Days 27 22  
Month to date heating degree days 351 354  
Since 1 July heating degree days 5888 6061  
Cooling Degree Days 0 0  
Month to date cooling degree days 0 0  
Year to date cooling degree days 0 0  
Moisture  
Dew Point 27 °F    
Average Humidity 68    
Maximum Humidity 100    
Minimum Humidity 36    
Precipitation  
Precipitation 0.02 in 0.04 in 0.48 in (1976)
Month to date precipitation 0.66 0.68  
Year to date precipitation 3.88 7.01  
Snow  
Snow 0.30 in 0.30 in 5.00 in (1976)
Month to date snowfall 10.0 4.2  
Since 1 July snowfall 102.5 98.1  
Snow Depth 7.00 in    
Sea Level Pressure  
Sea Level Pressure 30.01 in    
Wind  
Wind Speed 7 mph (WSW)    
Max Wind Speed 20 mph    
Max Gust Speed 28 mph    
Visibility 8 miles    
Events Snow    
T = Trace of Precipitation, MM = Missing Value Source: NWS Daily Summary

Daily Weather History Graph

Daily Weather History Graph

Search for Another Location

Airport or City:

Trip Planner

Search our weather history database for the weather conditions in past years. The results will help you decide how hot, cold, wet, or windy it might be!

Date:

Astronomy

Apr. 15, 2012 Rise Set
Actual Time 5:53 AM MST 6:59 PM MST
Civil Twilight 5:27 AM MST 7:26 PM MST
Nautical Twilight 4:56 AM MST 7:57 PM MST
Astronomical Twilight 4:24 AM MST 8:29 PM MST
Moon 2:41 AM MST (4/15) 2:09 PM MST (4/15)
Length of Visible Light 13h 58m
Length of Day
13h 05m
Waning Crescent, 26% of the Moon is Illuminated
Apr 15
Waning Crescent
Apr 21
New
Apr 29
First Quarter
May 5
Full
May 12
Last Quarter

Hourly Weather History & Observations

Time (MST) Temp. Windchill Dew Point Humidity Pressure Visibility Wind Dir Wind Speed Gust Speed Precip Events Conditions
12:53 AM 26.6 °F 18.2 °F 26.6 °F 100% 29.94 in 4.0 mi SW 8.1 mph - 0.00 in Snow Light Snow
12:57 AM 28.0 °F 20.8 °F 26.1 °F 92% 29.95 in 4.0 mi WSW 6.9 mph - 0.00 in Snow Light Snow
1:10 AM 28.4 °F 21.2 °F 26.6 °F 93% 29.95 in 1.8 mi WSW 6.9 mph - 0.00 in Snow Light Snow
1:27 AM 28.4 °F 21.2 °F 26.6 °F 93% 29.95 in 3.0 mi WSW 6.9 mph - 0.01 in Snow Light Snow
1:40 AM 28.4 °F 20.4 °F 26.6 °F 93% 29.95 in 2.0 mi WSW 8.1 mph - 0.01 in Snow Light Snow
1:57 AM 28.0 °F 19.3 °F 26.1 °F 92% 29.96 in 2.5 mi WSW 9.2 mph - 0.01 in Snow Light Snow
2:16 AM 28.4 °F 20.4 °F 26.6 °F 93% 29.95 in 3.0 mi SW 8.1 mph - 0.01 in Snow Light Snow
2:23 AM 28.4 °F 19.1 °F 26.6 °F 93% 29.95 in 3.0 mi SW 10.4 mph - 0.01 in Snow Light Snow
2:57 AM 28.0 °F 18.1 °F 26.1 °F 92% 29.97 in 3.0 mi SW 11.5 mph - 0.01 in Snow Light Snow
3:13 AM 28.4 °F 18.5 °F 26.6 °F 93% 29.96 in 2.0 mi WSW 11.5 mph - 0.00 in Snow Light Snow
3:31 AM 28.4 °F 19.1 °F 26.6 °F 93% 29.96 in 2.0 mi WSW 10.4 mph - 0.00 in Snow Light Snow
3:45 AM 28.4 °F 18.5 °F 26.6 °F 93% 29.96 in 3.0 mi WSW 11.5 mph - 0.00 in Snow Light Snow
3:57 AM 28.0 °F 20.0 °F 26.1 °F 92% 29.96 in 3.0 mi WSW 8.1 mph - 0.00 in Snow Light Snow
4:46 AM 28.4 °F 21.2 °F 26.6 °F 93% 29.98 in 10.0 mi WSW 6.9 mph - 0.00 in   Overcast
4:49 AM 28.4 °F 20.4 °F 26.6 °F 93% 29.98 in 10.0 mi WSW 8.1 mph - 0.00 in   Overcast
4:57 AM 28.0 °F 18.6 °F 27.0 °F 96% 29.98 in 10.0 mi WSW 10.4 mph - 0.00 in   Overcast
5:57 AM 28.0 °F 19.3 °F 27.0 °F 96% 30.00 in 10.0 mi SW 9.2 mph - N/A   Overcast
6:27 AM 30.2 °F 24.3 °F 26.6 °F 86% 30.00 in 10.0 mi WSW 5.8 mph - N/A   Scattered Clouds
6:57 AM 30.0 °F 24.1 °F 27.0 °F 88% 30.01 in 10.0 mi WSW 5.8 mph - N/A   Scattered Clouds
7:07 AM 30.2 °F 23.4 °F 26.6 °F 86% 30.02 in 10.0 mi WSW 6.9 mph - N/A   Mostly Cloudy
7:15 AM 30.2 °F 23.4 °F 26.6 °F 86% 30.03 in 10.0 mi SW 6.9 mph - N/A   Scattered Clouds
7:23 AM 32.0 °F 26.4 °F 26.6 °F 80% 30.03 in 10.0 mi Variable 5.8 mph - N/A   Mostly Cloudy
7:57 AM 33.1 °F 25.5 °F 28.0 °F 82% 30.03 in 10.0 mi West 9.2 mph 17.3 mph N/A   Overcast
8:57 AM 36.0 °F 29.0 °F 28.9 °F 76% 30.04 in 10.0 mi West 9.2 mph - N/A   Mostly Cloudy
9:04 AM 35.6 °F 28.6 °F 28.4 °F 75% 30.07 in 10.0 mi West 9.2 mph - N/A   Scattered Clouds
9:57 AM 37.9 °F 32.7 °F 30.0 °F 73% 30.04 in 10.0 mi West 6.9 mph - N/A   Clear
10:57 AM 41.0 °F 36.4 °F 30.0 °F 65% 30.05 in 10.0 mi WNW 6.9 mph - N/A   Clear
11:57 AM 39.9 °F 35.1 °F 28.9 °F 65% 30.05 in 10.0 mi WSW 6.9 mph - N/A   Scattered Clouds
12:57 PM 43.0 °F 37.7 °F 28.0 °F 56% 30.04 in 10.0 mi WSW 9.2 mph - N/A   Overcast
1:57 PM 45.0 °F 38.9 °F 27.0 °F 49% 30.02 in 10.0 mi SW 12.7 mph 20.7 mph N/A   Clear
2:57 PM 46.0 °F 40.2 °F 25.0 °F 44% 30.02 in 10.0 mi WSW 12.7 mph 21.9 mph N/A   Clear
3:57 PM 48.0 °F - 24.1 °F 39% 30.00 in 10.0 mi WSW 12.7 mph 18.4 mph N/A   Mostly Cloudy
4:57 PM 48.0 °F - 23.0 °F 37% 30.01 in 10.0 mi WSW 10.4 mph 18.4 mph N/A   Partly Cloudy
5:57 PM 43.0 °F 38.8 °F 27.0 °F 53% 30.05 in 10.0 mi Variable 6.9 mph - 0.00 in   Clear
7:57 PM 37.9 °F - 27.0 °F 65% 30.09 in 10.0 mi Calm Calm - N/A   Scattered Clouds
8:57 PM 35.1 °F 32.2 °F 28.0 °F 76% 30.11 in 10.0 mi SW 3.5 mph - N/A   Scattered Clouds
9:57 PM 30.9 °F - 27.0 °F 85% 30.13 in 10.0 mi Calm Calm - N/A   Clear
10:57 PM 28.9 °F 25.2 °F 26.1 °F 89% 30.13 in 10.0 mi West 3.5 mph - N/A   Clear
11:57 PM 28.9 °F - 26.1 °F 89% 30.14 in 10.0 mi Calm Calm - N/A   Clear